SCP
0 0 0 0 0 0 0 0 0 0 0 0 0 0 0 0 0 0 0 0 0 0 0 0 0 0 0 0 0 0 0 0 0 0 0 0 0 0 0 0 0 0 0 0
0 0 0 0 0 0 0 0 0 0 0 0 0 0 0 0 0 0 0 0 0 0 0 0 0 0 0 0 0 0 0 0 0 0 0 0 0 0 0 0 0 0 0 0
0 0 0 0 0 0 0 0 0 0 0 0 0 0 0 0 0 0 0 0 0 0 0 0 0 0 0 0 0 0 0 0 0 0 0 0 0 0 0 0 0 0 0 0
0 0 0 0 0 0 0 0 0 0 0 0 0 0 0 0 0 0 0 0 0 0 0 0 0 0 0 0 0 0 0 0 0 0 0 0 0 0 0 0 0 0 0 0
0 0 0 0 0 0 0 0 0 0 0 0 0 0 0 0 0 0 0 0 0 0 0 0 0 0 0 0 0 0 0 0 0 0 0 0 0 0 0 0 0 0 0 0
0 0 0 0 0 0 0 0 0 0 0 0 0 0 0 0 0 0 0 0 0 0 0 0 0 0 0 0 0 0 0 0 0 0 0 0 0 0 0 0 0 0 0 0
0 0 0 0 0 0 0 0 0 0 0 0 0 0 0 0 0 0 0 0 0 0 0 0 0 0 0 0 0 0 0 0 0 0 0 0 0 0 0 0 0 0 0 0
0 0 0 0 0 0 0 0 0 0 0 0 0 0 0 0 0 0 0 0 0 0 0 0 0 0 0 0 0 0 0 0 0 0 0 0 0 0 0 0 0 0 0 0
0 0 0 0 0 0 0 0 0 0 0 0 0 0 0 0 0 0 0 0 0 0 0 0 0 0 0 0 0 0 0 0 0 0 0 0 0 0 0 0 0 0 0 0
0 0 0 0 0 0 0 0 0 0 0 0 0 0 0 0 0 0 0 0 0 0 0 0 0 0 0 0 0 0 0 0 0 0 0 0 0 0 0 0 0 0 0 0
0 0 0 0 0 0 0 0 0 0 0 0 0 0 0 0 0 0 0 0 0 0 0 0 0 0 0 0 0 0 0 0 0 0 0 0 0 0 0 0 0 0 0 0
0 0 0 0 0 0 0 0 0 0 0 0 0 0 0 0 0 0 0 0 0 0 0 0 0 0 0 0 0 0 0 0 0 0 0 0 0 0 0 0 0 0 0 0
0 0 0 0 0 0 0 0 0 0 0 0 0 0 0 0 0 0 0 0 0 0 0 0 0 0 0 0 0 0 0 0 0 0 0 0 0 0 0 0 0 0 0 0
0 0 0 0 0 0 0 0 0 0 0 0 0 0 0 0 0 0 0 0 0 0 0 0 0 0 0 0 0 0 0 0 0 0 0 0 0 0 0 0 0 0 0 0
0 0 0 0 0 0 0 0 0 0 0 0 0 0 0 0 0 0 0 0 0 0 0 0 0 -0 0 0 0 0 0 0 0 0 0 0 0 0 0 0 0 0 0 0
0 0 0 0 0 0 0 0 0 0 0 0 0 0 0 0 0 0 0 0 0 0 0 0 0 0 0 0 0 0 0 0 0 0 0 0 0 0 0 0 0 0 0 0
0 0 0 0 0 0 0 0 0 0 0 0 0 0 0 0 0 0 0 0 0 0 0 0 0 0 0 0 0 0 0 0 0 0 0 0 0 0 0 0 0 0 0 0
0 0 0 0 0 0 0 0 0 0 0 0 0 0 0 0 0 0 0 0 0 0 0 0 0 0 0 0 0 0 0 0 0 0 0 0 0 0 0 0 0 0 0 0
0 0 0 0 0 0 0 0 0 0 0 0 0 0 0 0 0 0 0 0 0 0 0 0 0 0 0 0 0 0 0 0 0 0 0 0 0 0 0 0 0 0 0 0
0 0 0 0 0 0 0 0 0 0 0 0 0 0 0 0 0 0 0 0 0 0 0 0 0 0 0 0 0 0 0 0 0 0 0 0 0 0 0 0 0 0 0 0
0 0 0 0 0 0 0 0 0 0 0 0 0 0 0 0 0 0 0 0 0 0 0 0 0 0 0 0 0 0 0 0 0 0 0 0 0 0 0 0 0 0 0 0
0 0 0 0 0 0 0 0 0 0 0 0 0 0 0 0 0 0 0 0 0 0 0 0 0 0 0 0 0 0 0 0 0 0 0 0 0 0 0 0 0 0 0 0
0 0 0 0 0 0 0 0 0 0 0 0 0 0 0 0 0 0 0 0 0 0 0 0 0 0 0 0 0 0 0 0 0 0 0 0 0 0 0 0 0 0 0 0
0 0 0 0 0 0 0 0 0 0 0 0 0 0 0 0 0 0 0 0 0 0 0 0 0 0 0 0 0 0 0 0 0 0 0 0 0 0 0 0 0 0 0 0
0 0 0 0 0 0 0 0 0 0 0 0 0 0 0 0 0 0 0 0 0 0 0 0 0 0 0 0 0 0 0 0 0 0 0 0 0 0 0 0 0 0 0 0
0 0 0 0 0 0 0 0 0 0 0 0 0 0 0 0 0 0 0 0 0 0 0 0 0 0 0 0 0 0 0 0 0 0 0 0 0 0 0 0 0 0 0 0
0 0 0 0 0 0 0 0 0 0 0 0 0 0 0 0 0 0 0 0 0 0 0 0 0 0 0 0 0 0 0 0 0 0 0 0 0 0 0 0 0 0 0 0
Wind_Speed_500mb
2 5 7 12 29 30 32 45 25 37 24 40 42 43 55 49 43 42 43 38 31 26 21 16 12 7 5 7 11 17 24 28 33 37 42 47 51 55 59 61 63 65 66 65
7 1 7 5 16 35 45 39 34 20 25 21 57 38 40 49 50 46 43 39 32 27 21 17 11 7 4 8 15 23 30 36 43 49 54 59 64 67 70 72 73 74 73 76
12 8 1 9 32 32 29 32 37 36 36 20 37 47 56 57 53 50 48 41 34 28 23 16 11 5 5 14 23 31 38 44 51 56 61 65 68 70 73 76 78 79 79 80
8 13 15 11 4 17 34 17 31 13 16 45 62 80 52 57 64 58 50 43 36 28 20 13 5 5 14 24 34 42 49 54 60 64 67 67 69 70 72 76 80 83 84 84
10 16 12 9 11 16 22 34 32 28 21 25 34 45 29 58 61 59 50 42 36 28 18 9 8 15 25 34 44 52 58 60 60 62 65 67 71 74 76 81 83 85 87 89
7 11 20 3 9 15 14 24 32 37 36 44 47 23 18 60 58 54 49 41 33 23 15 13 18 27 36 45 52 55 55 56 56 60 64 69 72 76 76 77 83 84 85 83
14 8 11 8 14 17 18 8 29 49 54 53 25 13 32 66 61 54 46 38 27 20 17 21 29 36 43 46 48 50 54 55 56 58 64 68 74 78 81 82 81 83 84 83
6 8 20 22 17 16 7 7 34 40 42 52 34 36 57 68 62 53 43 33 25 20 20 27 35 38 39 43 50 54 56 57 61 65 67 71 75 78 79 82 85 86 84 85
16 12 3 43 3 22 20 31 34 50 53 60 46 52 67 67 56 45 36 31 26 23 24 29 31 35 42 48 54 59 63 67 70 71 71 72 76 78 79 78 80 84 82 83
6 8 6 37 14 24 26 37 41 46 56 59 57 63 66 58 48 40 35 30 25 22 22 25 32 37 45 51 57 63 69 72 74 75 74 74 75 76 77 74 75 76 75 73
5 1 5 22 35 41 42 39 42 47 50 55 55 66 59 51 43 37 32 27 23 20 22 27 32 36 45 52 59 65 69 72 72 74 76 78 77 75 75 73 66 67 66 63
13 27 12 21 55 46 47 48 49 51 53 49 48 51 48 41 36 31 28 23 20 20 24 27 31 39 47 54 61 65 69 69 71 74 76 78 81 83 73 67 59 50 46 45
4 17 33 7 54 51 50 50 52 54 54 56 48 42 39 35 32 28 25 22 20 22 26 30 37 43 50 55 58 60 65 68 71 73 74 74 73 72 77 65 44 39 35 32
19 17 23 23 30 57 56 55 57 55 50 46 45 42 36 34 32 30 27 25 24 26 29 34 38 42 48 52 55 59 62 62 64 67 67 66 63 60 56 53 51 34 29 28
34 33 30 37 43 56 68 63 61 58 55 53 46 40 39 40 37 34 31 29 29 31 33 35 38 42 47 51 54 55 56 57 59 61 59 57 53 48 42 40 38 36 32 30
39 43 43 40 48 54 65 63 67 68 63 56 50 47 45 43 40 38 35 32 31 31 33 36 40 44 48 50 52 51 51 49 50 53 51 47 41 38 32 30 30 31 31 30
55 51 59 65 57 61 63 63 72 78 71 63 55 49 50 48 44 41 36 33 32 33 34 37 40 44 46 47 47 46 44 41 40 40 40 37 32 28 25 26 25 22 18 15
69 75 79 82 82 73 67 66 70 78 76 67 57 54 56 52 44 40 37 35 34 34 34 38 43 43 44 44 42 41 39 36 33 32 29 28 25 21 19 19 17 14 12 6
75 78 84 85 86 82 74 68 71 74 76 71 65 61 56 50 47 43 39 36 34 33 33 37 39 40 39 39 36 34 32 29 28 26 24 22 20 17 16 17 15 13 9 7
87 86 92 91 87 82 78 75 75 80 79 73 65 64 61 53 48 43 39 37 34 33 32 33 33 35 35 33 31 30 27 24 22 21 19 17 16 15 15 15 14 11 9 8
77 90 97 100 96 89 88 84 82 79 79 72 68 64 55 51 47 43 40 36 33 33 32 30 29 31 30 30 28 27 25 21 18 17 15 15 15 14 13 13 12 11 10 8
75 88 92 95 95 91 82 76 72 69 72 71 67 61 53 49 45 41 37 33 31 31 30 29 30 31 29 28 26 25 24 22 20 18 17 16 17 17 17 16 17 16 14 14
50 59 70 67 68 70 68 65 64 65 65 61 55 50 47 45 42 36 33 30 29 29 29 30 31 29 29 28 27 27 26 25 24 23 23 23 23 24 24 25 25 24 22 22
33 37 44 50 55 59 60 59 57 54 51 48 48 47 43 39 35 31 29 27 26 26 27 28 28 27 28 28 29 29 29 29 28 28 29 29 30 30 30 30 26 24 24 25
27 29 36 42 47 49 49 49 49 48 47 45 44 41 38 34 31 27 26 25 25 25 26 26 27 28 30 31 31 31 32 32 33 32 32 31 32 33 30 27 26 28 29 28
19 23 27 33 38 42 45 45 44 43 43 42 38 33 30 25 23 22 22 23 23 25 26 27 29 31 32 33 34 34 35 34 35 35 36 35 34 31 31 33 34 33 33 33
26 30 34 37 39 39 39 39 38 37 35 33 29 27 25 22 21 20 21 22 23 24 27 30 31 32 33 34 35 36 37 37 38 39 39 38 38 38 38 38 38 37 37 39
Wind_Direction_500mb
126 106 181 206 184 184 197 219 209 238 219 186 187 186 183 171 166 167 168 167 163 157 149 140 126 106 59 23 14 6 357 350 344 338 333 329 326 323 320 318 316 316 315 313
167 89 50 212 208 198 209 216 230 234 235 196 191 177 171 176 174 174 173 171 169 167 161 154 149 137 75 20 0 348 340 335 331 328 325 323 320 318 315 314 313 312 312 312
213 142 38 283 223 203 217 218 221 227 229 173 176 190 186 182 181 179 177 176 173 170 169 167 157 135 5 342 333 327 324 323 322 321 320 319 317 315 314 312 311 310 309 308
127 142 210 244 72 210 210 218 213 234 166 175 186 195 184 185 186 184 181 179 175 172 171 170 169 322 324 323 321 319 319 319 319 318 317 316 315 313 313 311 310 310 308 308
175 204 314 198 193 168 183 237 210 211 155 167 161 162 178 195 195 188 183 177 174 172 180 210 275 302 310 312 313 314 316 318 318 317 316 315 313 311 309 307 305 304 305 305
154 206 221 336 167 164 142 261 180 175 166 155 150 177 184 187 187 182 175 172 175 186 209 252 284 300 307 310 312 315 316 318 318 316 313 311 309 306 304 303 302 303 302 303
170 212 279 217 145 144 173 256 178 180 166 161 172 203 188 180 175 174 175 178 185 202 235 270 290 301 307 310 312 314 314 315 315 314 312 310 309 308 308 304 301 301 303 303
142 190 246 157 119 189 185 171 183 179 175 163 153 145 164 169 169 174 180 186 201 222 255 281 294 304 309 311 313 314 313 313 313 313 310 308 307 309 309 308 306 304 305 305
190 203 102 179 147 200 171 168 176 181 183 181 161 159 166 167 171 175 187 200 215 237 266 285 297 309 313 313 313 313 312 311 309 309 309 307 306 306 306 308 307 307 307 307
157 177 186 189 186 182 178 173 168 169 166 173 167 167 166 168 175 186 198 214 237 260 279 292 307 314 314 316 318 317 315 312 309 307 308 309 309 307 307 308 307 306 304 303
284 299 71 207 200 185 176 169 162 166 172 174 172 171 174 180 189 200 216 233 250 267 290 303 309 314 313 314 316 318 318 316 313 310 311 310 310 310 309 309 309 304 298 301
222 187 178 211 198 190 183 182 181 176 172 174 177 178 184 192 203 218 233 244 261 284 296 302 307 311 310 313 315 317 318 317 316 313 313 313 313 311 310 312 310 301 289 285
207 199 199 221 202 199 198 194 191 191 190 183 184 193 198 209 219 227 235 248 264 278 289 301 308 310 311 311 312 314 316 316 314 312 312 312 313 314 313 313 314 304 295 281
225 193 207 204 201 211 211 204 199 191 189 194 200 201 210 220 227 234 242 256 270 280 289 300 307 312 314 313 314 315 314 314 312 312 312 313 314 314 312 314 318 317 303 292
226 221 237 238 224 214 211 205 197 199 204 206 209 217 224 229 230 235 246 255 263 273 285 298 310 316 317 316 315 316 315 316 313 312 312 313 314 313 314 314 312 307 305 296
227 226 227 232 233 217 213 209 213 214 214 215 219 225 227 225 228 234 241 249 259 274 289 301 307 313 315 316 315 315 315 315 313 313 314 315 315 314 318 311 301 300 302 300
227 225 228 231 227 220 219 226 231 226 220 221 225 227 225 224 229 235 244 254 265 276 286 297 305 309 313 315 315 314 316 317 313 312 313 317 315 314 311 300 297 300 313 321
234 239 237 236 233 228 227 229 229 226 226 227 228 231 227 228 235 239 245 253 264 276 289 300 305 309 311 312 313 314 315 315 314 313 315 316 312 309 301 289 287 291 301 317
233 236 237 238 240 236 238 243 234 229 229 227 230 231 227 229 233 237 243 251 260 274 286 293 298 302 302 304 305 307 309 309 308 309 312 309 305 297 286 278 275 274 272 270
239 236 238 240 240 240 243 244 240 232 229 227 228 225 226 229 232 236 243 250 259 271 280 286 291 293 294 296 297 299 300 301 301 300 300 295 288 281 274 267 264 262 259 254
245 240 236 239 240 239 239 238 237 232 226 225 224 224 225 228 230 234 241 251 263 271 276 281 283 283 284 285 285 287 289 291 291 291 289 285 278 268 260 256 254 250 248 257
249 245 243 240 239 239 236 234 233 229 223 220 217 217 221 225 227 232 240 249 260 268 273 276 278 277 275 273 273 276 276 277 278 277 277 275 272 271 267 262 257 255 260 271
262 257 251 248 242 238 234 226 222 218 214 212 216 219 221 223 226 231 240 249 256 261 264 268 272 269 266 267 268 269 269 270 270 271 270 270 269 268 268 268 269 272 278 284
273 256 243 234 227 220 214 207 203 202 204 208 214 216 218 221 225 233 241 247 250 255 260 266 267 264 262 266 268 268 269 270 271 270 270 271 271 271 270 270 273 280 282 279
271 244 229 219 212 207 204 203 202 203 205 207 209 211 216 223 229 238 245 251 258 261 262 266 264 264 265 267 269 270 270 271 271 271 270 270 270 269 270 274 278 277 275 276
244 220 207 203 204 203 202 200 201 201 201 202 206 213 221 225 231 238 245 252 258 260 263 266 266 268 270 271 272 272 272 272 273 273 272 271 270 272 274 274 273 273 274 275
197 198 195 195 193 191 193 195 194 195 197 201 207 213 219 225 233 242 251 256 260 264 267 268 269 271 273 275 276 277 277 275 274 274 274 274 273 272 271 271 272 273 274 276
Wind_Speed_850mb
2 5 7 12 29 30 32 45 25 37 24 40 42 43 55 49 43 42 43 38 31 26 21 16 12 7 5 7 11 17 24 28 33 37 42 47 51 55 59 61 63 65 66 65
7 1 7 5 16 35 45 39 34 20 25 21 57 38 40 49 50 46 43 39 32 27 21 17 11 7 4 8 15 23 30 36 43 49 54 59 64 67 70 72 73 74 73 76
12 8 1 9 32 32 29 32 37 36 36 20 37 47 56 57 53 50 48 41 34 28 23 16 11 5 5 14 23 31 38 44 51 56 61 65 68 70 73 76 78 79 79 80
8 13 15 11 4 17 34 17 31 13 16 45 62 80 52 57 64 58 50 43 36 28 20 13 5 5 14 24 34 42 49 54 60 64 67 67 69 70 72 76 80 83 84 84
10 16 12 9 11 16 22 34 32 28 21 25 34 45 29 58 61 59 50 42 36 28 18 9 8 15 25 34 44 52 58 60 60 62 65 67 71 74 76 81 83 85 87 89
7 11 20 3 9 15 14 24 32 37 36 44 47 23 18 60 58 54 49 41 33 23 15 13 18 27 36 45 52 55 55 56 56 60 64 69 72 76 76 77 83 84 85 83
14 8 11 8 14 17 18 8 29 49 54 53 25 13 32 66 61 54 46 38 27 20 17 21 29 36 43 46 48 50 54 55 56 58 64 68 74 78 81 82 81 83 84 83
6 8 20 22 17 16 7 7 34 40 42 52 34 36 57 68 62 53 43 33 25 20 20 27 35 38 39 43 50 54 56 57 61 65 67 71 75 78 79 82 85 86 84 85
16 12 3 43 3 22 20 31 34 50 53 60 46 52 67 67 56 45 36 31 26 23 24 29 31 35 42 48 54 59 63 67 70 71 71 72 76 78 79 78 80 84 82 83
6 8 6 37 14 24 26 37 41 46 56 59 57 63 66 58 48 40 35 30 25 22 22 25 32 37 45 51 57 63 69 72 74 75 74 74 75 76 77 74 75 76 75 73
5 1 5 22 35 41 42 39 42 47 50 55 55 66 59 51 43 37 32 27 23 20 22 27 32 36 45 52 59 65 69 72 72 74 76 78 77 75 75 73 66 67 66 63
13 27 12 21 55 46 47 48 49 51 53 49 48 51 48 41 36 31 28 23 20 20 24 27 31 39 47 54 61 65 69 69 71 74 76 78 81 83 73 67 59 50 46 45
4 17 33 7 54 51 50 50 52 54 54 56 48 42 39 35 32 28 25 22 20 22 26 30 37 43 50 55 58 60 65 68 71 73 74 74 73 72 77 65 44 39 35 32
19 17 23 23 30 57 56 55 57 55 50 46 45 42 36 34 32 30 27 25 24 26 29 34 38 42 48 52 55 59 62 62 64 67 67 66 63 60 56 53 51 34 29 28
34 33 30 37 43 56 68 63 61 58 55 53 46 40 39 40 37 34 31 29 29 31 33 35 38 42 47 51 54 55 56 57 59 61 59 57 53 48 42 40 38 36 32 30
39 43 43 40 48 54 65 63 67 68 63 56 50 47 45 43 40 38 35 32 31 31 33 36 40 44 48 50 52 51 51 49 50 53 51 47 41 38 32 30 30 31 31 30
55 51 59 65 57 61 63 63 72 78 71 63 55 49 50 48 44 41 36 33 32 33 34 37 40 44 46 47 47 46 44 41 40 40 40 37 32 28 25 26 25 22 18 15
69 75 79 82 82 73 67 66 70 78 76 67 57 54 56 52 44 40 37 35 34 34 34 38 43 43 44 44 42 41 39 36 33 32 29 28 25 21 19 19 17 14 12 6
75 78 84 85 86 82 74 68 71 74 76 71 65 61 56 50 47 43 39 36 34 33 33 37 39 40 39 39 36 34 32 29 28 26 24 22 20 17 16 17 15 13 9 7
87 86 92 91 87 82 78 75 75 80 79 73 65 64 61 53 48 43 39 37 34 33 32 33 33 35 35 33 31 30 27 24 22 21 19 17 16 15 15 15 14 11 9 8
77 90 97 100 96 89 88 84 82 79 79 72 68 64 55 51 47 43 40 36 33 33 32 30 29 31 30 30 28 27 25 21 18 17 15 15 15 14 13 13 12 11 10 8
75 88 92 95 95 91 82 76 72 69 72 71 67 61 53 49 45 41 37 33 31 31 30 29 30 31 29 28 26 25 24 22 20 18 17 16 17 17 17 16 17 16 14 14
50 59 70 67 68 70 68 65 64 65 65 61 55 50 47 45 42 36 33 30 29 29 29 30 31 29 29 28 27 27 26 25 24 23 23 23 23 24 24 25 25 24 22 22
33 37 44 50 55 59 60 59 57 54 51 48 48 47 43 39 35 31 29 27 26 26 27 28 28 27 28 28 29 29 29 29 28 28 29 29 30 30 30 30 26 24 24 25
27 29 36 42 47 49 49 49 49 48 47 45 44 41 38 34 31 27 26 25 25 25 26 26 27 28 30 31 31 31 32 32 33 32 32 31 32 33 30 27 26 28 29 28
19 23 27 33 38 42 45 45 44 43 43 42 38 33 30 25 23 22 22 23 23 25 26 27 29 31 32 33 34 34 35 34 35 35 36 35 34 31 31 33 34 33 33 33
26 30 34 37 39 39 39 39 38 37 35 33 29 27 25 22 21 20 21 22 23 24 27 30 31 32 33 34 35 36 37 37 38 39 39 38 38 38 38 38 38 37 37 39
Wind_Direction_850mb
126 106 181 206 184 184 197 219 209 238 219 186 187 186 183 171 166 167 168 167 163 157 149 140 126 106 59 23 14 6 357 350 344 338 333 329 326 323 320 318 316 316 315 313
167 89 50 212 208 198 209 216 230 234 235 196 191 177 171 176 174 174 173 171 169 167 161 154 149 137 75 20 0 348 340 335 331 328 325 323 320 318 315 314 313 312 312 312
213 142 38 283 223 203 217 218 221 227 229 173 176 190 186 182 181 179 177 176 173 170 169 167 157 135 5 342 333 327 324 323 322 321 320 319 317 315 314 312 311 310 309 308
127 142 210 244 72 210 210 218 213 234 166 175 186 195 184 185 186 184 181 179 175 172 171 170 169 322 324 323 321 319 319 319 319 318 317 316 315 313 313 311 310 310 308 308
175 204 314 198 193 168 183 237 210 211 155 167 161 162 178 195 195 188 183 177 174 172 180 210 275 302 310 312 313 314 316 318 318 317 316 315 313 311 309 307 305 304 305 305
154 206 221 336 167 164 142 261 180 175 166 155 150 177 184 187 187 182 175 172 175 186 209 252 284 300 307 310 312 315 316 318 318 316 313 311 309 306 304 303 302 303 302 303
170 212 279 217 145 144 173 256 178 180 166 161 172 203 188 180 175 174 175 178 185 202 235 270 290 301 307 310 312 314 314 315 315 314 312 310 309 308 308 304 301 301 303 303
142 190 246 157 119 189 185 171 183 179 175 163 153 145 164 169 169 174 180 186 201 222 255 281 294 304 309 311 313 314 313 313 313 313 310 308 307 309 309 308 306 304 305 305
190 203 102 179 147 200 171 168 176 181 183 181 161 159 166 167 171 175 187 200 215 237 266 285 297 309 313 313 313 313 312 311 309 309 309 307 306 306 306 308 307 307 307 307
157 177 186 189 186 182 178 173 168 169 166 173 167 167 166 168 175 186 198 214 237 260 279 292 307 314 314 316 318 317 315 312 309 307 308 309 309 307 307 308 307 306 304 303
284 299 71 207 200 185 176 169 162 166 172 174 172 171 174 180 189 200 216 233 250 267 290 303 309 314 313 314 316 318 318 316 313 310 311 310 310 310 309 309 309 304 298 301
222 187 178 211 198 190 183 182 181 176 172 174 177 178 184 192 203 218 233 244 261 284 296 302 307 311 310 313 315 317 318 317 316 313 313 313 313 311 310 312 310 301 289 285
207 199 199 221 202 199 198 194 191 191 190 183 184 193 198 209 219 227 235 248 264 278 289 301 308 310 311 311 312 314 316 316 314 312 312 312 313 314 313 313 314 304 295 281
225 193 207 204 201 211 211 204 199 191 189 194 200 201 210 220 227 234 242 256 270 280 289 300 307 312 314 313 314 315 314 314 312 312 312 313 314 314 312 314 318 317 303 292
226 221 237 238 224 214 211 205 197 199 204 206 209 217 224 229 230 235 246 255 263 273 285 298 310 316 317 316 315 316 315 316 313 312 312 313 314 313 314 314 312 307 305 296
227 226 227 232 233 217 213 209 213 214 214 215 219 225 227 225 228 234 241 249 259 274 289 301 307 313 315 316 315 315 315 315 313 313 314 315 315 314 318 311 301 300 302 300
227 225 228 231 227 220 219 226 231 226 220 221 225 227 225 224 229 235 244 254 265 276 286 297 305 309 313 315 315 314 316 317 313 312 313 317 315 314 311 300 297 300 313 321
234 239 237 236 233 228 227 229 229 226 226 227 228 231 227 228 235 239 245 253 264 276 289 300 305 309 311 312 313 314 315 315 314 313 315 316 312 309 301 289 287 291 301 317
233 236 237 238 240 236 238 243 234 229 229 227 230 231 227 229 233 237 243 251 260 274 286 293 298 302 302 304 305 307 309 309 308 309 312 309 305 297 286 278 275 274 272 270
239 236 238 240 240 240 243 244 240 232 229 227 228 225 226 229 232 236 243 250 259 271 280 286 291 293 294 296 297 299 300 301 301 300 300 295 288 281 274 267 264 262 259 254
245 240 236 239 240 239 239 238 237 232 226 225 224 224 225 228 230 234 241 251 263 271 276 281 283 283 284 285 285 287 289 291 291 291 289 285 278 268 260 256 254 250 248 257
249 245 243 240 239 239 236 234 233 229 223 220 217 217 221 225 227 232 240 249 260 268 273 276 278 277 275 273 273 276 276 277 278 277 277 275 272 271 267 262 257 255 260 271
262 257 251 248 242 238 234 226 222 218 214 212 216 219 221 223 226 231 240 249 256 261 264 268 272 269 266 267 268 269 269 270 270 271 270 270 269 268 268 268 269 272 278 284
273 256 243 234 227 220 214 207 203 202 204 208 214 216 218 221 225 233 241 247 250 255 260 266 267 264 262 266 268 268 269 270 271 270 270 271 271 271 270 270 273 280 282 279
271 244 229 219 212 207 204 203 202 203 205 207 209 211 216 223 229 238 245 251 258 261 262 266 264 264 265 267 269 270 270 271 271 271 270 270 270 269 270 274 278 277 275 276
244 220 207 203 204 203 202 200 201 201 201 202 206 213 221 225 231 238 245 252 258 260 263 266 266 268 270 271 272 272 272 272 273 273 272 271 270 272 274 274 273 273 274 275
197 198 195 195 193 191 193 195 194 195 197 201 207 213 219 225 233 242 251 256 260 264 267 268 269 271 273 275 276 277 277 275 274 274 274 274 273 272 271 271 272 273 274 276